FW4376 Weather Reports


time (UTC)temp
C
wind
direction
speed
KPH
gust
KPH
rain 1hr
cm
rain 24hr
cm
rain mn
cm
humidity
%
barometer
mb
20260904123047 24 134 0.0 3.2 0.00 0.71 0.00 93 1013.9
20260904121546 24 134 0.0 4.8 0.00 0.71 0.00 93 1013.7
20260904120045 24 217 0.0 3.2 0.00 0.71 0.00 93 1013.6
20260904114547 23 110 0.0 3.2 0.00 0.71 0.00 93 1013.6
20260904113042 23 120 0.0 6.4 0.00 0.71 0.00 92 1013.4
20260904111543 23 259 0.0 3.2 0.00 0.71 0.00 92 1013.3
20260904110040 23 149 0.0 3.2 0.00 0.71 0.00 92 1013.3
20260904104540 23 118 0.0 3.2 0.00 0.71 0.00 91 1013.2
20260904103038 23 133 0.0 4.8 0.00 0.71 0.00 91 1013.1
20260904101536 23 167 0.0 1.6 0.00 0.71 0.00 90 1013.0
20260904100038 23 123 0.0 1.6 0.00 0.71 0.00 90 1013.0
20260904094541 23 124 0.0 1.6 0.00 0.71 0.00 89 1012.9
20260904093033 24 110 0.0 3.2 0.00 0.71 0.00 90 1012.9
20260904091532 24 172 0.0 3.2 0.00 0.71 0.00 89 1012.9
20260904090030 24 153 0.0 4.8 0.00 0.71 0.00 89 1012.9
20260904084531 24 141 1.6 4.8 0.00 0.79 0.00 88 1012.8
20260904083040 24 106 0.0 4.8 0.00 0.79 0.00 88 1012.8
20260904081527 24 125 0.0 3.2 0.00 0.79 0.00 87 1012.9
20260904080027 24 134 0.0 3.2 0.00 0.79 0.00 86 1012.9
20260904074526 25 104 0.0 1.6 0.00 0.79 0.00 85 1012.8
20260904073026 25 181 0.0 3.2 0.00 0.79 0.00 85 1012.9
20260904071524 25 123 0.0 4.8 0.00 0.79 0.00 85 1012.8
20260904070023 25 107 0.0 4.8 0.00 0.79 0.00 84 1012.9
20260904064522 25 155 0.0 4.8 0.00 0.79 0.00 83 1013.0
20260904063025 25 119 0.0 3.2 0.00 0.79 0.00 82 1013.0
20260904061519 25 153 0.0 4.8 0.00 0.79 0.00 82 1012.9
20260904060018 25 124 0.0 8.0 0.00 0.79 0.00 81 1013.1
20260904054517 25 212 1.6 6.4 0.00 0.79 0.00 80 1013.0
20260904053019 25 155 0.0 4.8 0.00 0.79 0.00 79 1012.9
20260904051517 25 105 0.0 4.8 0.00 0.79 0.00 79 1012.9
20260904050012 25 224 0.0 4.8 0.00 0.79 0.00 78 1012.9
20260904044518 26 91 0.0 3.2 0.00 0.79 0.79 77 1013.0
20260904043013 26 145 0.0 4.8 0.00 0.79 0.79 77 1013.0
20260904041511 26 146 0.0 4.8 0.00 0.79 0.79 76 1013.0
20260904040010 26 122 0.0 4.8 0.00 0.79 0.79 76 1013.2
20260904034513 26 214 0.0 4.8 0.00 0.79 0.79 76 1013.1
20260904033007 26 127 0.0 4.8 0.00 0.79 0.79 76 1013.2
20260904031507 26 134 1.6 8.0 0.00 0.79 0.79 76 1013.2
20260904030007 27 119 1.6 4.8 0.00 0.79 0.79 78 1013.1
20260904024512 27 237 0.0 4.8 0.00 0.79 0.79 77 1012.9
20260904023006 27 120 1.6 6.4 0.00 0.79 0.79 76 1012.7
20260904021509 27 108 0.0 6.4 0.00 0.79 0.79 76 1012.4
20260904020005 28 124 1.6 6.4 0.00 0.79 0.79 76 1012.2
20260904014505 28 135 0.0 6.4 0.00 0.79 0.79 75 1012.1
20260904013004 28 108 0.0 4.8 0.00 0.79 0.79 74 1011.8
20260904011503 28 112 1.6 6.4 0.00 0.79 0.79 73 1011.6
20260904010003 29 203 0.0 8.0 0.00 0.79 0.79 74 1011.5
20260904004503 29 282 1.6 8.0 0.00 0.79 0.79 72 1011.5
20260904003002 30 46 1.6 9.7 0.00 0.79 0.79 71 1011.4
20260904001502 30 148 3.2 14.5 0.00 0.79 0.79 70 1011.4
20260904000001 30 239 3.2 16.1 0.00 0.79 0.79 68 1011.4
20260903234601 30 153 3.2 9.7 0.00 0.79 0.79 66 1011.3
20260903233102 31 124 3.2 9.7 0.00 0.79 0.79 64 1011.2
20260903231558 31 139 1.6 12.9 0.00 0.79 0.79 64 1011.0
20260903230057 32 95 3.2 11.3 0.00 0.79 0.79 63 1011.1
20260903224614 32 145 4.8 12.9 0.00 0.79 0.79 62 1011.0
20260903223057 32 220 4.8 11.3 0.00 0.79 0.79 63 1011.1
20260903221556 32 129 3.2 12.9 0.00 0.79 0.79 63 1011.1
20260903220052 32 169 4.8 12.9 0.00 0.79 0.79 64 1011.1
20260903214608 32 148 1.6 11.3 0.00 0.79 0.79 64 1011.3
20260903213059 32 288 3.2 11.3 0.00 0.79 0.79 65 1011.4
20260903211547 32 128 3.2 14.5 0.00 0.79 0.79 66 1011.7
20260903210120 32 147 1.6 9.7 0.00 0.79 0.79 66 1011.7
20260903204550 32 259 3.2 9.7 0.00 0.79 0.79 66 1011.9
20260903203103 31 258 3.2 12.9 0.00 0.79 0.79 68 1012.2
20260903201544 31 208 1.6 9.7 0.00 0.79 0.79 70 1012.4
20260903200047 31 139 3.2 11.3 0.00 0.79 0.79 70 1012.4
20260903194538 31 127 3.2 14.5 0.00 0.79 0.79 70 1012.4
20260903193034 30 221 3.2 12.9 0.00 0.79 0.79 71 1012.6
20260903191535 29 101 4.8 11.3 0.00 0.79 0.79 73 1012.9
20260903190032 28 84 3.2 11.3 0.00 0.79 0.79 76 1013.4
20260903184529 28 97 4.8 14.5 0.00 0.79 0.79 75 1013.6
20260903183028 29 84 4.8 17.7 0.00 0.79 0.79 75 1013.6
20260903181525 28 179 6.4 19.3 0.00 0.79 0.79 77 1013.7
20260903180026 28 117 6.4 17.7 0.00 0.79 0.79 78 1013.9
20260903174521 27 113 4.8 14.5 0.00 0.79 0.79 80 1014.0
20260903173017 26 94 4.8 14.5 0.00 0.79 0.79 84 1014.1
20260903171515 26 94 3.2 19.3 0.00 0.79 0.79 84 1014.3
20260903170014 26 155 1.6 12.9 0.00 0.79 0.79 86 1014.2
20260903164515 26 150 3.2 12.9 0.00 0.79 0.79 88 1014.2
20260903163013 25 261 3.2 11.3 0.00 0.79 0.79 88 1014.2
20260903161513 25 112 1.6 14.5 0.00 0.79 0.79 90 1014.0
20260903160016 25 175 3.2 11.3 0.00 0.79 0.79 90 1014.0
20260903154511 25 143 3.2 14.5 0.00 0.79 0.79 91 1013.9
20260903153014 25 103 3.2 12.9 0.00 0.79 0.79 91 1013.7
20260903151509 25 213 4.8 12.9 0.00 0.79 0.79 93 1013.6
20260903150009 25 314 1.6 9.7 0.00 0.79 0.79 94 1013.7
20260903144508 25 160 3.2 11.3 0.00 0.79 0.79 95 1013.6
20260903143008 25 124 0.0 8.0 0.00 0.79 0.79 95 1013.7
20260903141508 25 149 0.0 6.4 0.00 0.79 0.79 95 1013.9
20260903140007 25 199 0.0 6.4 0.00 0.79 0.79 95 1014.0
20260903134506 25 167 1.6 6.4 0.03 0.79 0.79 95 1013.7
20260903133003 25 264 1.6 9.7 0.08 0.79 0.79 96 1013.6
20260903131502 25 134 1.6 8.0 0.48 0.79 0.79 96 1013.6
20260903130001 24 115 3.2 8.0 0.71 0.79 0.79 96 1013.5
20260903124605 24 125 1.6 6.4 0.69 0.76 0.76 95 1013.3